Trenton, NJ

12:54 PM EST on December 11, 2019 (GMT -0500)
Trenton Mercer

Weather History for KTTN - October, 2019

Change the Weather History Date:

Saturday, October 12, 2019

  Actual Average Record
Temperature  
Mean Temperature 58 °F 56 °F  
Max Temperature 70 °F 66 °F 86 °F (1912)
Min Temperature 47 °F 45 °F 33 °F (1906)
Degree Days  
Heating Degree Days 6 10  
Month to date heating degree days 62 94  
Since 1 July heating degree days 80 159  
Cooling Degree Days 0 0  
Month to date cooling degree days 26 7  
Year to date cooling degree days 1163 962  
Growing Degree Days 8 (Base 50)    
Moisture  
Dew Point 47 °F    
Average Humidity 68    
Maximum Humidity 86    
Minimum Humidity 49    
Precipitation  
Precipitation 0.00 in 0.14 in 3.02 in (1870)
Month to date precipitation 0.90 1.80  
Year to date precipitation 39.56 37.05  
Sea Level Pressure  
Sea Level Pressure 29.97 in    
Wind  
Wind Speed 4 mph ()    
Max Wind Speed 12 mph    
Max Gust Speed 21 mph    
Visibility 10.0 miles    
Events      
T = Trace of Precipitation, MM = Missing Value Source: Averaged Metar Reports

Daily Weather History Graph

Daily Weather History Graph

Search for Another Location

Airport or City:

Astronomy

Oct. 12, 2019 Rise Set
Actual Time 7:06 AM EDT 6:24 PM EDT
Civil Twilight 6:39 AM EDT 6:51 PM EDT
Nautical Twilight 6:07 AM EDT 7:23 PM EDT
Astronomical Twilight 5:36 AM EDT 7:54 PM EDT
Moon 6:19 PM EDT (10/12) 5:41 AM EDT (10/12)
Length of Visible Light 12h 12m
Length of Day
11h 17m
Waxing Gibbous, 99% of the Moon is Illuminated
Oct 12
Waxing Gibbous
Oct 13
Full
Oct 21
Last Quarter
Oct 27
New
Nov 4
First Quarter

Hourly Weather History & Observations

Time (EDT) Temp. Dew Point Humidity Pressure Visibility Wind Dir Wind Speed Gust Speed Precip Events Conditions
12:53 AM 53.1 °F 46.0 °F 77% 30.00 in 10.0 mi NW 3.5 mph - N/A   Mostly Cloudy
1:53 AM 51.1 °F 46.0 °F 83% 30.01 in 10.0 mi NW 4.6 mph - N/A   Mostly Cloudy
2:53 AM 50.0 °F 44.1 °F 80% 29.98 in 10.0 mi North 5.8 mph - N/A   Clear
3:53 AM 48.9 °F 44.1 °F 83% 29.98 in 10.0 mi NW 4.6 mph - N/A   Clear
4:53 AM 48.9 °F 44.1 °F 83% 29.96 in 10.0 mi NNW 5.8 mph - N/A   Clear
5:53 AM 48.0 °F 44.1 °F 86% 29.96 in 10.0 mi WNW 5.8 mph - N/A   Clear
6:53 AM 48.0 °F 44.1 °F 86% 29.98 in 10.0 mi NW 5.8 mph - N/A   Clear
7:53 AM 48.9 °F 44.1 °F 83% 29.98 in 10.0 mi NNW 4.6 mph - N/A   Clear
8:53 AM 54.0 °F 45.0 °F 72% 29.99 in 10.0 mi NNW 4.6 mph - N/A   Clear
9:53 AM 57.9 °F 46.0 °F 65% 29.99 in 10.0 mi Variable 3.5 mph - N/A   Clear
10:53 AM 59.0 °F 46.0 °F 62% 29.98 in 10.0 mi NNE 3.5 mph - N/A   Clear
11:53 AM 62.1 °F 48.0 °F 60% 29.97 in 10.0 mi NNE 3.5 mph - N/A   Clear
12:53 PM 64.9 °F 48.0 °F 54% 29.95 in 10.0 mi Variable 6.9 mph - N/A   Clear
1:53 PM 68.0 °F 48.0 °F 49% 29.93 in 10.0 mi WSW 6.9 mph - N/A   Scattered Clouds
2:53 PM 68.0 °F 48.0 °F 49% 29.92 in 10.0 mi Variable 4.6 mph - N/A   Clear
3:53 PM 68.0 °F 48.9 °F 50% 29.92 in 10.0 mi NNW 8.1 mph - N/A   Partly Cloudy
4:53 PM 66.0 °F 48.9 °F 54% 29.93 in 10.0 mi Variable 4.6 mph - N/A   Overcast
5:53 PM 64.9 °F 48.9 °F 56% 29.94 in 10.0 mi Calm Calm - N/A   Mostly Cloudy
6:53 PM 64.0 °F 48.9 °F 58% 29.95 in 10.0 mi WNW 3.5 mph - N/A   Partly Cloudy
7:53 PM 62.1 °F 48.9 °F 62% 29.97 in 10.0 mi West 3.5 mph - N/A   Clear
8:53 PM 61.0 °F 48.9 °F 64% 29.97 in 10.0 mi WSW 4.6 mph - N/A   Mostly Cloudy
9:53 PM 60.1 °F 48.9 °F 67% 29.99 in 10.0 mi West 5.8 mph - N/A   Clear
10:53 PM 57.9 °F 48.9 °F 72% 29.99 in 10.0 mi WNW 3.5 mph - N/A   Clear
11:53 PM 55.9 °F 48.9 °F 77% 29.99 in 10.0 mi Calm Calm - N/A   Clear